Weather History for KTQE - October, 2010

Change the Weather History Date:

Friday, October 22, 2010

  Actual Average Record
Temperature  
Mean Temperature 56 °F -  
Max Temperature 77 °F 65 °F 87 °F (1975)
Min Temperature 37 °F 38 °F 19 °F (1976)
Degree Days  
Heating Degree Days 9    
Growing Degree Days 6 (Base 50)    
Moisture  
Dew Point 41 °F    
Average Humidity 57    
Maximum Humidity 78    
Minimum Humidity 36    
Precipitation  
Precipitation 0.00 in - - ()
Sea Level Pressure  
Sea Level Pressure 29.88 in    
Wind  
Wind Speed 5 mph (SSE)    
Max Wind Speed 20 mph    
Max Gust Speed 24 mph    
Visibility 10 miles    
Events      
Averages and records for this station are not official NWS values.
T = Trace of Precipitation, MM = Missing Value Source: NWS Daily Summary

Daily Weather History Graph

Daily Weather History Graph

Search for Another Location

Airport or City:

Trip Planner

Search our weather history database for the weather conditions in past years. The results will help you decide how hot, cold, wet, or windy it might be!

Date:

Astronomy

Oct. 22, 2010 Rise Set
Actual Time 7:44 AM CDT 6:32 PM CDT
Civil Twilight 7:16 AM CDT 7:00 PM CDT
Nautical Twilight 6:44 AM CDT 7:33 PM CDT
Astronomical Twilight 6:11 AM CDT 8:05 PM CDT
Moon 6:01 PM CDT (10/22) 7:26 AM CDT (10/22)
Length of Visible Light 11h 44m
Length of Day
10h 47m
Full, 100% of the Moon is Illuminated
Oct 22
Full
Oct 22
Full
Oct 30
Last Quarter
Nov 5
New
Nov 13
First Quarter

Hourly Weather History & Observations

Time (CDT) Temp. Windchill Dew Point Humidity Pressure Visibility Wind Dir Wind Speed Gust Speed Precip Events Conditions
12:54 AM 39.9 °F - 30.0 °F 68% 29.98 in 10.0 mi Calm Calm - N/A   Clear
1:54 AM 37.0 °F 34.5 °F 26.1 °F 65% 29.97 in 10.0 mi ENE 3.5 mph - N/A   Clear
2:54 AM 41.0 °F - 28.9 °F 62% 29.97 in 10.0 mi Calm Calm - N/A   Clear
3:54 AM 37.9 °F - 28.9 °F 70% 29.97 in 10.0 mi Calm Calm - N/A   Clear
4:54 AM 37.0 °F - 30.0 °F 76% 29.96 in 10.0 mi Calm Calm - N/A   Clear
5:54 AM 39.9 °F 36.7 °F 28.9 °F 65% 29.95 in 10.0 mi South 4.6 mph - N/A   Clear
6:54 AM 39.9 °F - 30.0 °F 68% 29.95 in 10.0 mi Calm Calm - N/A   Clear
8:54 AM 46.9 °F - 32.0 °F 56% 29.94 in 10.0 mi Calm Calm - N/A   Clear
9:54 AM 55.9 °F - 34.0 °F 44% 29.93 in 10.0 mi SE 11.5 mph - N/A   Clear
10:54 AM 62.1 °F - 37.0 °F 39% 29.91 in 10.0 mi South 12.7 mph - N/A   Clear
11:54 AM 66.9 °F - 41.0 °F 39% 29.89 in 10.0 mi South 8.1 mph - N/A   Clear
12:54 PM 72.0 °F - 44.1 °F 37% 29.87 in 10.0 mi SE 9.2 mph - N/A   Clear
1:54 PM 75.0 °F - 46.0 °F 36% 29.85 in 10.0 mi SSE 15.0 mph - N/A   Clear
2:54 PM 75.9 °F - 48.0 °F 37% 29.82 in 10.0 mi SSE 17.3 mph - N/A   Clear
3:54 PM 73.0 °F - 48.0 °F 41% 29.82 in 10.0 mi SSE 19.6 mph 24.2 mph N/A   Clear
4:54 PM 71.1 °F - 48.9 °F 45% 29.81 in 10.0 mi SE 13.8 mph - N/A   Clear
5:54 PM 69.1 °F - 50.0 °F 51% 29.80 in 10.0 mi SE 10.4 mph - N/A   Clear
6:54 PM 66.9 °F - 52.0 °F 59% 29.80 in 10.0 mi SE 12.7 mph - N/A   Clear
7:54 PM 66.0 °F - 53.1 °F 63% 29.81 in 10.0 mi SSE 11.5 mph - N/A   Clear
8:54 PM 64.9 °F - 53.1 °F 65% 29.82 in 10.0 mi SSE 9.2 mph - N/A   Partly Cloudy
9:54 PM 63.0 °F - 53.1 °F 70% 29.81 in 10.0 mi SSE 8.1 mph - N/A   Mostly Cloudy
10:54 PM 59.0 °F - 51.1 °F 75% 29.80 in 10.0 mi SE 8.1 mph - N/A   Partly Cloudy
11:54 PM 60.1 °F - 53.1 °F 78% 29.79 in 10.0 mi SE 9.2 mph - N/A   Clear